Theta_e
307 307 307 306 305 305 306 305 306 309 312 315 318 317 316 311 312 314 312 310 308 320 320 321 322 322 321 318 319 319 318 320 319 318 319 319 320 321 321 320 321 322 326 329 332
308 307 306 306 306 306 305 305 305 306 310 312 316 318 316 314 312 313 308 309 309 321 321 321 321 322 320 319 319 317 317 319 318 317 320 319 321 321 321 320 320 324 328 332 336
306 307 306 306 305 304 305 304 305 305 306 309 314 316 316 313 311 310 308 308 309 319 321 322 322 321 320 318 319 317 318 318 321 321 322 320 320 322 321 319 319 321 336 337 338
303 304 304 304 305 303 304 304 304 304 305 306 312 315 317 310 313 321 321 312 310 319 322 322 322 320 318 318 319 319 318 320 320 320 320 320 320 322 322 322 321 322 324 334 337
304 304 303 304 303 303 304 303 303 304 304 306 309 314 314 310 311 319 319 319 312 320 322 322 322 320 318 317 318 317 317 319 320 320 319 319 318 319 321 321 322 322 322 322 324
303 302 301 301 301 301 301 301 302 303 303 304 308 312 313 310 314 311 320 320 312 320 321 321 322 321 319 316 318 317 318 318 319 318 318 318 317 319 318 320 320 321 322 322 321
302 301 301 301 301 301 301 301 301 302 301 303 307 311 312 311 311 310 319 320 316 321 320 321 321 321 319 317 318 318 318 317 317 318 317 318 317 315 319 319 319 319 319 319 320
302 300 300 300 300 301 301 301 301 301 303 301 305 309 312 313 312 315 317 318 318 320 319 319 321 320 320 318 318 317 316 319 317 316 317 318 319 316 318 319 319 319 319 318 318
301 300 301 301 301 302 301 302 302 301 301 301 304 306 310 311 311 317 317 318 318 319 320 320 319 320 319 317 317 316 317 318 318 316 316 316 317 316 317 317 317 317 317 316 317
301 301 300 299 299 301 302 302 302 301 301 302 305 310 310 310 310 316 315 316 319 320 320 321 320 320 317 317 320 318 318 316 317 315 315 315 314 315 316 316 315 316 317 318 318
301 301 301 300 301 301 302 302 302 304 304 307 310 310 310 310 310 315 314 315 319 320 321 320 321 322 320 317 316 315 317 317 315 313 312 311 310 310 311 311 311 313 316 318 318
301 300 300 301 301 300 301 302 301 302 303 306 306 309 310 312 312 311 312 316 318 319 318 320 321 318 320 320 320 318 318 317 313 312 312 310 310 310 310 311 312 313 314 314 315
300 300 300 300 301 299 302 303 301 302 304 304 305 307 310 311 312 312 313 316 317 316 316 318 316 318 319 318 319 317 314 313 314 311 309 308 309 309 308 309 310 311 312 312 312
301 302 302 303 303 301 301 302 302 302 299 305 307 309 311 311 311 312 313 316 316 314 314 313 312 316 314 316 313 313 311 312 311 311 312 308 311 308 307 307 307 309 310 310 311
302 303 304 303 305 303 301 302 301 303 305 307 308 310 311 312 311 312 314 314 314 315 313 313 313 313 314 314 311 313 310 310 309 308 308 309 309 308 306 309 309 307 308 309 310
304 303 303 303 302 302 302 303 303 302 309 310 310 312 312 312 313 313 312 313 314 313 311 311 311 311 311 310 311 309 309 307 306 306 304 307 309 308 308 309 307 306 309 310 311
304 304 304 304 304 302 303 303 297 304 305 310 313 312 312 314 314 313 313 312 314 315 313 311 310 309 310 310 310 308 306 303 305 305 308 307 309 308 307 307 308 306 309 311 312
303 304 304 304 303 302 302 300 303 305 306 308 312 312 314 313 314 314 312 312 310 309 310 312 313 311 309 310 310 309 307 304 308 311 309 306 310 309 306 306 306 309 310 311 312
303 302 304 304 304 302 303 306 307 307 307 313 312 313 314 312 314 314 312 311 310 309 309 306 310 309 309 309 309 309 305 306 304 301 303 306 304 302 306 307 307 308 310 311 313
303 303 303 304 304 303 304 308 308 306 311 309 311 312 312 313 314 313 312 310 310 309 308 308 310 311 311 310 309 308 307 307 299 299 306 305 305 305 307 308 307 305 308 311 314
303 303 303 303 303 302 302 307 308 311 311 311 310 311 310 311 311 311 311 309 309 308 309 309 307 312 311 310 310 309 307 306 304 303 303 308 306 304 306 307 307 305 308 313 314
303 302 304 305 301 303 306 305 308 311 311 310 308 309 310 310 311 310 309 310 309 308 310 309 306 312 312 308 307 308 308 306 303 304 301 301 307 305 305 305 306 309 309 314 315
303 304 305 305 303 307 307 309 310 311 310 311 309 309 308 309 310 309 309 309 309 309 309 309 305 303 308 306 306 308 308 306 304 301 301 303 307 305 304 307 308 312 313 314 313
304 299 305 306 305 307 310 311 312 312 310 308 308 309 309 310 309 310 309 310 310 309 310 309 305 305 306 305 304 304 308 307 303 302 304 304 306 308 308 308 311 314 313 312 311
305 304 305 308 308 310 310 311 311 311 310 309 309 309 311 311 311 310 309 309 309 310 309 307 308 307 307 307 308 308 307 307 302 307 303 307 308 308 309 310 312 311 309 307 307
303 304 305 306 308 306 308 310 310 310 310 311 311 311 309 311 310 311 309 308 310 308 308 305 306 306 302 306 306 306 307 307 307 308 308 309 310 309 310 313 313 307 304 303 303
303 304 305 305 304 305 307 310 311 311 311 310 310 311 311 310 308 309 309 308 307 307 307 309 308 303 304 306 308 307 308 307 307 307 310 311 310 313 313 314 308 304 300 300 299
Wind_Speed
21 21 21 21 21 20 21 19 17 23 20 19 14 17 16 14 14 19 26 23 24 13 19 22 20 15 12 9 10 7 3 5 6 7 4 1 2 2 6 12 7 4 8 4 20
25 24 22 21 21 19 22 22 20 18 26 22 21 11 17 13 17 26 27 22 16 19 17 20 24 21 11 11 10 6 5 9 6 5 1 5 3 6 6 10 4 5 7 8 26
27 26 25 24 24 22 22 20 22 21 19 24 21 14 18 13 12 27 20 24 20 26 20 17 16 19 11 8 9 6 5 5 5 8 3 2 7 3 4 5 4 3 6 21 25
30 28 29 30 25 26 22 23 22 23 21 19 23 25 18 16 7 1 1 15 23 31 25 19 13 13 6 6 8 3 8 5 10 20 5 1 8 5 8 12 3 6 2 10 20
26 25 24 25 24 22 24 21 21 20 19 19 21 20 17 15 21 4 3 13 28 29 32 24 18 9 7 8 3 4 2 8 17 14 8 6 8 9 12 20 17 18 15 9 10
25 26 25 24 21 21 23 20 20 19 18 17 18 17 17 11 15 18 3 12 31 31 32 27 16 17 7 4 11 3 11 15 11 11 7 5 8 13 4 8 20 20 21 19 17
26 25 23 20 20 20 19 20 18 16 16 18 18 13 16 24 7 15 6 18 29 30 30 27 14 19 6 3 8 7 3 2 6 5 5 1 10 9 20 24 28 34 30 28 28
25 23 21 20 18 19 19 18 19 17 17 16 13 11 7 25 8 15 12 19 20 20 24 24 16 18 5 3 4 6 3 3 3 7 5 7 20 1 10 25 28 32 36 35 35
24 21 21 21 19 21 20 21 21 14 15 11 13 9 4 13 25 18 16 16 17 20 19 17 22 5 8 5 3 2 4 4 5 7 4 8 3 4 16 27 27 30 33 34 31
23 22 21 18 18 20 19 27 11 11 11 8 11 9 8 12 25 23 17 11 13 18 13 11 11 5 4 4 8 5 5 3 5 2 3 7 8 15 22 14 15 25 30 32 31
24 23 25 19 17 17 18 22 4 3 5 5 8 3 5 6 21 23 19 13 12 9 5 5 2 8 13 7 3 5 3 3 3 1 3 6 5 13 15 16 19 28 34 40 41
26 25 20 17 15 12 17 14 6 4 3 9 7 5 4 13 12 21 18 11 8 4 6 4 3 10 4 3 1 3 1 3 5 0 2 6 11 17 15 14 25 30 36 39 41
24 22 19 14 16 12 8 9 4 3 2 3 6 5 3 12 7 19 19 6 5 4 3 4 3 9 8 2 4 1 3 3 3 3 3 7 7 6 4 7 14 24 30 33 36
26 25 24 18 12 6 7 7 5 2 2 2 4 4 8 13 5 22 19 8 3 5 5 3 3 13 8 6 5 4 3 2 2 3 2 4 5 6 7 9 6 11 11 16 22
27 27 27 17 11 13 6 1 9 1 4 5 4 12 8 1 21 10 11 3 5 6 5 2 4 7 4 5 4 3 4 4 3 4 2 1 2 8 4 6 4 6 24 23 17
28 19 12 7 8 1 6 11 6 2 3 5 6 8 6 7 4 11 4 8 12 6 6 3 2 3 3 4 3 8 5 6 4 2 2 2 4 6 2 2 5 7 22 29 29
18 15 10 11 8 8 13 8 4 3 1 4 8 10 8 13 6 4 3 4 4 5 3 3 3 2 5 7 5 5 6 3 4 3 4 3 2 9 9 9 4 4 15 24 27
12 10 12 10 9 11 13 2 6 3 2 1 11 13 6 6 8 7 6 3 3 5 4 3 0 3 1 4 5 1 5 4 4 1 3 2 5 5 3 3 10 9 15 26 28
14 18 21 16 10 11 5 3 2 2 2 8 12 7 4 5 4 5 1 4 3 1 5 4 1 1 2 3 5 3 2 3 5 3 2 3 7 8 5 4 4 13 21 28 33
8 12 17 10 6 4 3 5 2 5 10 5 4 2 6 3 4 4 4 2 3 2 1 4 4 2 3 5 6 3 7 3 3 2 3 4 5 4 3 2 5 10 20 24 31
6 5 7 6 4 4 2 5 4 11 12 5 3 5 5 5 4 2 5 1 3 4 2 4 3 2 4 2 5 2 1 5 4 3 3 3 6 5 3 2 5 9 19 22 33
7 3 6 10 3 2 2 4 9 4 6 4 5 6 4 4 3 3 6 2 9 7 4 1 4 3 2 2 3 3 5 5 3 3 1 2 6 2 4 5 9 21 24 26 26
4 4 8 8 3 3 2 3 2 3 3 1 3 2 2 5 5 3 3 4 10 5 6 4 2 3 4 5 3 2 4 4 4 3 5 4 5 2 7 11 19 19 25 21 25
3 3 5 4 3 2 2 3 3 3 2 4 4 5 5 3 5 4 3 4 5 7 8 6 3 4 5 4 3 2 4 6 6 3 4 7 8 15 17 11 17 19 19 23 24
5 2 3 3 4 3 3 2 4 5 4 9 4 4 5 3 3 3 2 2 6 5 4 4 2 0 4 5 2 4 4 7 8 10 6 5 7 19 17 16 17 11 17 20 23
3 3 3 4 9 6 3 6 5 4 4 4 5 8 7 3 0 5 5 2 2 3 3 3 3 3 4 4 7 5 8 9 10 9 11 18 23 23 22 11 8 9 13 16 19
4 2 4 4 4 3 4 3 4 2 11 10 5 4 9 5 1 7 5 8 6 6 3 4 4 2 4 4 3 5 9 12 5 5 9 12 14 5 6 8 4 9 11 13 15
Wind_Direction
323 321 319 319 311 312 309 308 293 260 269 255 272 243 261 260 250 247 241 236 226 188 197 206 211 221 215 217 203 182 123 189 206 178 229 91 40 289 300 274 287 227 225 230 184
310 311 307 308 307 307 308 308 303 293 254 259 245 300 246 252 253 254 246 239 228 179 180 197 201 199 200 203 197 175 172 201 196 195 175 332 22 330 336 320 304 264 207 188 174
312 308 309 305 301 301 306 299 298 294 283 257 247 290 228 237 264 267 257 235 209 181 185 179 188 191 193 191 202 184 197 200 226 221 305 335 324 320 337 308 235 287 164 163 174
318 318 314 306 300 305 299 297 295 289 277 272 239 238 217 207 219 168 163 211 197 183 188 184 177 174 161 194 198 184 216 195 240 258 271 252 302 278 245 248 226 315 242 195 191
320 310 306 305 300 292 294 296 293 290 273 273 241 240 191 193 223 193 274 208 185 191 195 195 185 170 165 181 180 192 235 224 247 265 272 271 253 249 256 261 264 271 280 260 227
318 317 313 311 308 299 299 298 296 287 274 275 245 266 224 221 244 226 268 198 184 190 199 200 196 183 186 202 190 215 209 257 269 270 257 228 237 247 252 263 268 269 266 268 271
322 321 318 315 311 306 304 301 294 292 276 271 244 270 207 218 252 209 201 192 176 187 190 198 193 184 201 140 219 230 187 248 234 234 231 258 258 224 247 261 266 272 269 269 269
325 325 322 320 317 313 307 311 301 285 279 261 260 257 239 219 189 184 174 181 192 198 194 187 174 188 184 149 102 134 108 192 253 183 233 177 261 244 243 241 254 263 270 272 270
326 327 323 319 314 315 316 312 315 282 271 257 262 228 209 224 210 176 169 174 185 199 197 190 193 174 170 134 89 211 173 193 294 211 220 190 320 272 257 246 249 258 264 269 268
329 324 326 320 315 314 312 321 302 263 255 244 220 152 213 208 193 177 172 180 172 176 163 165 187 164 135 161 191 162 189 217 198 167 164 268 270 276 275 274 267 268 269 267 269
328 326 323 319 317 317 314 342 13 35 176 203 172 147 117 176 183 185 182 181 178 156 173 154 141 183 181 179 122 134 153 177 237 241 340 258 261 279 274 277 273 268 266 268 270
330 325 320 310 316 308 314 338 292 312 313 244 325 232 315 154 163 184 184 169 169 146 140 118 180 173 116 65 79 96 327 261 283 262 311 314 294 273 268 252 248 255 259 263 267
326 329 326 318 314 307 324 345 233 305 270 54 292 291 128 171 139 172 176 189 140 124 114 122 123 131 135 163 209 173 183 216 243 323 65 324 280 260 299 265 267 261 265 270 267
324 319 310 307 301 270 341 332 189 242 91 250 184 248 175 140 75 168 176 146 151 127 124 107 109 151 142 177 148 150 215 192 61 51 260 29 292 300 295 311 267 291 290 303 292
324 316 308 302 287 276 307 208 159 212 101 158 178 156 153 165 135 167 174 147 127 120 109 190 134 129 124 162 139 163 126 113 105 88 27 6 124 272 332 324 357 52 5 11 10
336 341 348 12 29 164 144 135 123 36 120 150 138 172 125 133 85 139 178 101 119 78 65 80 103 84 117 61 130 142 83 51 57 85 14 252 147 284 254 13 333 4 35 37 33
11 15 43 58 46 134 141 132 37 95 311 157 154 125 106 134 106 128 88 81 121 120 73 28 7 36 101 74 40 77 68 344 352 13 220 138 126 253 288 302 273 352 27 22 16
23 33 50 74 93 123 133 44 48 332 267 236 117 101 97 129 115 126 105 101 37 91 112 144 67 180 155 141 162 72 131 158 220 237 286 241 233 251 173 41 104 55 17 7 2
59 57 62 67 98 143 342 18 255 266 285 126 93 100 85 57 105 94 14 126 149 107 121 116 35 155 131 122 123 192 98 180 106 26 34 257 285 313 55 73 40 7 3 357 349
44 54 59 75 94 190 36 304 274 208 119 68 88 87 133 122 100 105 143 170 129 143 87 188 103 51 104 99 56 142 152 74 6 113 282 296 273 238 278 286 340 343 346 339 342
10 50 46 71 41 37 57 334 351 38 31 51 118 103 101 119 102 92 167 59 175 168 83 120 97 338 100 169 172 138 142 61 112 124 155 323 270 215 244 187 327 303 322 332 328
12 38 337 339 55 53 1 328 335 318 348 21 73 85 97 102 97 103 185 210 192 143 136 39 116 137 141 348 197 172 175 140 123 216 75 158 274 320 290 240 281 318 323 321 319
24 330 11 354 47 12 331 332 238 246 279 111 98 105 141 130 113 113 161 321 184 133 161 186 36 69 12 351 1 184 192 134 114 88 200 149 259 204 277 317 327 323 323 327 329
357 11 354 26 24 291 331 358 304 232 337 55 96 108 102 76 42 141 115 30 145 167 154 101 106 150 188 203 139 195 197 176 141 141 193 237 291 298 298 309 317 329 337 331 329
13 63 0 337 354 356 334 335 28 24 42 43 60 104 115 109 97 107 88 78 48 108 79 99 130 243 266 249 214 222 211 186 192 206 185 234 253 277 295 307 313 338 335 333 333
36 1 3 301 319 337 342 357 36 14 38 13 67 47 60 90 283 173 127 120 153 51 83 27 118 34 289 280 218 243 232 219 221 231 254 261 275 279 288 296 324 337 337 337 335
61 12 333 325 340 356 329 5 3 76 41 58 87 86 55 2 39 145 145 138 154 135 122 130 116 55 278 340 313 286 228 201 197 209 218 240 250 295 312 332 319 329 341 339 339